Theta_e
295 288 284 288 290 291 289 287 287 290 294 290 290 291 295 304 303 302 309 312 313 315 319 321 321 313 311 308 307 306 306 306 305 304 303 303 302 302 302 303 304 304 305 304
290 285 292 295 294 291 289 286 286 290 294 291 288 289 293 304 303 304 304 311 313 315 317 318 319 320 310 308 307 306 305 305 306 305 305 303 303 302 303 303 303 305 305 305
286 291 296 294 290 289 287 284 286 287 291 290 287 285 288 296 303 308 311 312 314 314 315 316 317 319 318 308 306 307 306 305 305 305 305 304 304 302 301 301 301 302 304 305
290 294 292 292 288 289 284 290 290 289 285 280 287 277 284 288 291 306 308 308 310 311 314 316 317 318 319 317 310 310 307 306 306 306 305 304 303 300 300 300 301 302 303 303
288 289 289 289 290 291 288 292 290 289 284 282 284 279 284 288 288 291 301 307 310 311 314 315 316 318 320 321 320 311 310 307 308 307 307 305 301 301 301 301 300 300 301 302
291 294 292 290 293 292 293 290 289 286 284 277 282 279 280 285 288 290 293 297 308 310 314 316 318 318 319 320 321 318 309 308 308 308 306 305 303 302 301 300 299 300 300 300
286 289 291 293 288 290 289 283 276 275 275 275 282 278 282 288 289 291 292 294 299 306 308 310 311 312 314 314 316 318 314 309 307 307 308 307 305 304 303 302 301 299 299 298
278 276 287 291 288 285 285 284 276 273 273 275 281 276 283 290 291 292 293 294 295 296 303 308 309 311 313 313 314 317 314 310 308 307 307 308 307 306 305 303 302 301 301 301
280 279 288 291 291 289 284 281 285 280 279 276 278 282 287 291 291 292 293 294 293 296 297 301 309 310 310 311 313 317 317 314 309 307 307 308 308 307 305 303 302 301 301 301
283 278 285 289 290 290 286 288 279 279 275 274 276 277 279 285 288 291 290 291 293 294 296 297 300 302 308 311 313 315 317 315 311 309 307 308 308 308 306 304 302 302 302 302
285 282 281 284 284 283 284 283 283 282 279 275 273 276 286 286 290 290 291 292 292 295 296 297 299 300 302 302 304 312 316 316 315 310 308 308 308 308 307 305 304 303 302 302
286 282 276 280 285 287 285 283 282 277 276 276 275 276 287 288 291 290 290 291 291 292 295 297 299 300 301 302 303 303 307 315 316 314 310 308 309 308 306 306 303 303 301 302
286 279 273 277 279 283 281 284 284 283 280 276 273 276 287 285 287 287 288 290 290 290 292 294 297 298 300 300 301 302 304 310 314 311 309 308 307 307 306 304 302 302 301 299
292 282 278 274 277 280 279 281 282 281 275 276 278 281 285 287 287 288 288 288 289 289 290 290 291 295 298 300 300 301 302 305 310 308 307 306 306 306 304 303 302 301 300 297
286 279 280 281 282 283 282 282 282 278 280 276 280 280 284 286 286 288 288 289 290 290 290 290 290 293 296 298 299 300 299 300 302 304 305 305 305 305 303 301 301 299 298 296
287 280 281 279 283 282 280 283 282 282 282 281 282 281 288 289 286 288 288 289 289 289 290 291 292 294 297 297 298 297 295 296 298 299 300 301 301 301 301 300 298 297 294 292
284 281 279 277 280 279 277 281 281 281 282 282 278 283 286 285 288 289 289 289 289 290 291 291 291 293 297 297 297 294 294 295 297 298 298 299 298 298 296 295 294 292 290 290
281 280 278 275 276 270 281 285 285 284 285 285 286 287 288 287 287 289 289 289 289 290 292 292 292 292 297 297 295 293 292 292 295 295 295 296 295 294 293 293 291 290 289 288
286 281 277 276 274 278 282 284 284 283 283 287 286 288 288 289 288 287 291 290 288 289 292 292 293 294 296 296 295 292 290 290 290 291 293 293 293 291 290 288 287 287 286 286
286 284 280 277 274 273 281 287 290 287 278 287 287 286 287 288 283 285 291 291 291 291 292 292 293 294 296 294 293 292 291 289 289 290 292 292 291 289 288 287 286 286 286 285
279 279 278 278 276 278 283 287 288 277 278 286 287 287 287 285 286 289 291 291 291 291 292 292 292 292 294 295 292 291 291 290 292 293 292 290 289 288 288 287 287 286 285 284
281 278 276 277 276 274 286 286 281 282 284 285 285 286 285 286 288 290 291 291 292 292 292 292 291 291 293 295 293 291 291 293 293 292 290 290 289 289 288 286 285 285 283 282
279 281 278 281 279 282 284 283 283 282 282 282 283 284 284 283 284 286 288 290 291 291 291 291 290 290 291 293 294 291 292 289 289 290 289 288 287 286 285 284 283 282 282 280
281 280 279 279 278 276 281 280 280 280 280 281 282 282 283 282 283 285 286 287 289 291 292 292 291 290 290 292 293 294 289 289 287 286 285 285 283 283 283 283 283 282 281 280
274 277 274 276 276 276 279 278 278 279 280 280 280 280 280 280 280 282 283 285 286 289 291 292 291 291 290 290 290 288 286 286 285 284 283 283 283 282 282 282 282 283 284 284
274 272 270 269 275 275 275 278 279 278 277 278 278 278 279 280 279 281 282 284 284 287 289 291 291 289 289 288 288 286 285 285 284 283 282 283 283 282 282 283 282 287 285 286
Wind_Speed
3 8 5 9 6 8 7 4 6 4 6 3 6 7 7 9 11 8 3 5 10 8 9 2 5 11 14 13 12 10 9 7 6 4 4 4 4 3 2 4 7 6 6 6
9 3 7 8 7 8 7 5 6 6 10 6 3 7 8 12 9 14 15 14 8 8 9 8 6 4 11 13 13 11 9 7 6 4 3 4 3 1 3 3 4 5 6 6
1 5 8 7 5 11 5 4 5 5 11 4 1 8 4 7 7 9 12 17 14 14 15 14 12 5 4 12 13 14 12 8 6 7 4 4 4 3 2 2 3 5 6 6
4 4 6 8 3 5 5 3 5 6 7 3 5 5 7 3 5 11 10 9 12 11 11 14 14 15 8 9 11 12 11 12 8 8 6 7 8 6 4 4 3 4 7 6
7 4 5 5 5 4 9 8 10 4 3 4 9 5 8 5 7 3 4 9 14 14 14 12 16 18 18 11 10 14 13 12 12 12 11 9 6 4 3 3 6 4 5 7
7 1 2 3 10 3 8 6 5 3 2 4 5 6 7 3 0 2 4 3 8 9 12 12 11 10 12 10 10 11 15 16 14 14 13 14 12 9 6 6 6 5 3 4
7 3 1 1 6 7 10 7 5 7 6 3 5 5 9 3 2 2 4 6 5 4 6 9 12 13 12 11 10 9 14 15 16 19 16 15 13 12 12 11 9 8 6 4
3 11 5 6 2 3 5 3 5 2 3 6 5 2 6 3 1 5 5 6 4 6 4 7 9 6 8 10 11 9 12 14 17 15 15 15 14 9 9 11 9 9 8 7
5 7 3 2 1 2 7 5 1 0 2 1 4 6 4 4 6 6 6 5 4 1 3 6 8 8 7 7 8 10 11 13 13 15 12 15 14 13 12 12 10 9 7 5
1 5 4 3 1 2 1 4 5 4 4 5 6 5 5 3 4 5 3 3 4 3 4 4 5 7 7 9 9 10 10 14 16 16 14 13 14 16 14 12 13 13 10 11
1 3 9 5 0 3 3 2 2 2 4 2 5 8 7 6 5 6 7 8 7 8 8 7 7 6 6 5 6 8 11 12 13 14 15 15 14 13 14 13 13 13 13 13
2 3 4 10 4 3 1 1 3 4 6 1 3 10 7 5 6 3 6 7 7 8 9 8 7 6 5 6 5 6 7 12 13 13 13 14 11 12 13 13 13 13 12 11
0 2 4 10 6 4 1 3 3 2 2 5 3 8 1 7 8 3 5 8 8 7 7 7 6 7 7 7 6 6 6 7 9 10 12 13 15 13 14 13 14 14 15 13
3 3 8 7 9 1 7 5 4 6 4 5 13 19 19 18 13 13 10 7 7 6 5 5 6 7 7 7 6 6 6 6 6 9 11 12 12 13 12 13 14 15 16 16
5 6 4 5 6 8 12 17 11 10 12 10 23 13 20 18 14 13 7 7 7 7 6 5 5 6 5 5 5 5 2 3 4 6 8 9 10 11 11 12 14 14 15 13
3 5 5 7 6 10 15 16 18 13 11 13 14 22 19 16 9 6 6 3 5 6 6 6 7 6 5 6 5 3 2 2 3 4 7 8 10 10 12 13 14 13 14 13
4 4 1 9 3 4 14 6 3 4 4 5 5 10 7 7 8 7 5 4 5 6 6 6 6 7 7 7 6 6 6 4 4 5 5 8 10 10 11 12 13 13 13 14
6 6 4 5 0 5 10 5 7 7 3 5 5 9 12 10 8 5 3 4 6 6 6 7 5 5 7 5 5 5 5 5 5 6 8 9 10 11 11 12 12 12 13 12
14 5 3 3 4 6 10 5 1 4 5 16 13 16 10 11 9 6 8 4 2 4 6 6 6 6 6 7 7 7 6 6 6 7 8 10 11 13 14 13 13 12 11 10
4 3 4 3 4 5 4 8 6 1 6 19 18 18 19 14 10 5 11 9 9 9 8 8 8 6 5 6 6 8 9 8 9 9 10 10 11 12 13 15 15 13 13 13
2 1 6 8 5 7 13 12 9 4 8 17 14 14 13 9 8 14 15 13 8 7 10 7 7 7 8 6 7 8 8 13 11 10 10 11 11 13 13 14 12 14 13 11
2 2 4 1 3 7 17 9 7 8 10 15 15 13 14 15 17 17 17 16 17 18 10 9 7 8 8 6 9 10 12 9 10 11 13 13 13 11 11 15 13 14 15 14
7 2 2 2 0 7 10 12 10 12 13 17 16 16 17 19 18 18 16 18 16 16 14 9 7 9 8 8 10 11 11 9 11 12 12 12 13 13 14 15 15 13 13 11
6 11 4 7 7 20 3 10 12 15 15 17 16 17 18 20 21 21 18 18 17 17 17 17 15 12 12 9 9 13 9 11 13 12 12 9 8 9 12 10 10 11 10 10
5 8 8 6 10 16 10 21 22 24 23 22 20 17 18 18 20 19 19 20 18 18 18 18 16 16 13 9 8 6 9 12 12 12 12 12 10 8 7 7 8 9 6 9
6 4 3 4 9 8 12 17 20 22 23 20 21 27 23 20 21 22 20 18 20 19 19 18 18 14 12 8 8 9 11 14 15 13 11 12 11 10 9 9 7 11 14 15
Wind_Direction
319 54 349 290 281 265 263 329 359 299 357 297 263 282 221 143 134 147 312 223 155 182 142 132 353 153 152 156 160 162 161 170 156 151 144 140 145 149 130 158 156 157 146 142
13 356 300 309 329 6 25 17 343 309 336 327 293 285 256 165 177 182 159 198 182 160 130 154 183 329 167 165 166 164 173 170 168 149 133 128 134 152 142 152 153 157 151 146
48 286 333 355 4 0 325 14 327 290 317 318 303 318 304 189 193 207 177 185 176 169 163 167 165 160 245 173 176 175 174 165 169 153 125 92 77 58 77 153 141 164 152 153
266 312 352 334 348 32 309 305 323 322 14 314 52 299 328 241 183 180 182 166 199 186 177 174 165 168 215 186 180 173 174 168 166 164 162 168 173 168 191 173 159 160 153 147
268 319 346 324 305 350 253 306 292 265 308 11 349 69 283 41 31 11 250 207 199 199 172 182 185 183 191 187 168 167 175 176 177 178 179 176 175 156 143 141 156 167 166 158
254 335 174 257 306 264 298 320 3 60 58 40 299 103 303 14 358 99 40 308 219 197 179 184 179 184 194 189 194 182 170 177 184 185 180 186 184 168 154 166 176 184 172 169
327 327 294 316 343 345 14 23 356 8 13 228 282 52 236 282 309 95 86 33 42 190 184 187 189 191 194 196 194 198 195 184 193 186 185 189 186 179 179 176 182 178 180 188
42 333 359 343 124 275 312 78 121 351 344 286 310 265 267 130 3 59 61 118 86 108 175 218 223 217 202 195 195 194 197 191 188 201 198 186 184 188 188 183 179 185 190 188
12 290 318 253 313 73 325 30 178 240 288 353 266 304 27 25 44 44 41 40 61 217 200 174 207 213 211 219 210 210 205 204 191 200 207 190 184 186 187 184 182 181 167 172
288 302 282 310 357 326 130 288 22 10 357 314 306 310 227 229 194 173 169 211 260 240 246 254 226 223 211 204 202 201 207 201 187 188 195 207 203 187 184 177 182 183 168 166
281 141 291 350 354 261 357 5 4 143 145 235 310 270 216 232 232 202 227 225 229 237 247 237 232 229 232 236 221 213 205 200 201 193 189 198 196 197 181 183 182 177 164 165
208 175 263 264 310 347 112 103 109 112 296 261 198 269 281 199 91 198 317 299 275 255 246 239 235 234 241 258 262 253 241 210 206 201 189 197 205 189 181 182 174 160 154 153
254 292 327 333 351 357 62 207 190 136 96 210 202 260 342 314 329 348 299 296 302 307 262 259 263 248 244 239 240 265 269 247 212 193 190 194 193 193 185 171 155 150 146 139
122 217 193 206 233 250 283 258 231 192 182 248 231 275 285 293 299 305 315 291 302 304 288 260 266 246 247 249 252 245 265 254 207 185 190 194 191 188 180 165 160 156 154 150
160 223 238 247 262 283 276 281 266 211 226 204 272 254 270 280 278 282 274 317 335 332 336 316 298 278 264 237 248 285 271 199 173 158 175 188 182 176 164 159 157 153 153 147
206 251 194 276 258 271 289 283 268 240 246 238 251 273 274 268 272 243 281 314 324 328 322 318 315 293 259 238 234 197 219 178 129 155 154 144 146 152 159 159 153 146 135 140
205 188 162 266 244 347 304 244 166 204 190 207 237 248 305 279 256 251 243 246 275 289 293 305 292 281 255 224 203 194 180 163 146 142 145 148 150 153 151 148 147 144 143 136
219 154 187 263 353 203 241 261 244 234 61 26 356 3 349 305 280 255 219 226 260 271 289 297 290 281 260 214 185 161 166 167 159 154 158 157 154 146 145 144 140 137 138 139
209 162 236 236 202 287 283 300 141 121 77 11 355 356 349 333 328 340 347 273 268 290 291 278 280 276 264 208 178 166 167 163 163 173 169 164 161 151 148 143 139 134 132 136
78 182 167 153 225 249 46 315 310 93 179 15 5 7 358 344 353 303 335 347 351 327 293 283 287 291 268 234 179 175 180 177 187 180 176 165 160 158 153 146 144 144 144 145
25 15 219 238 259 283 341 343 317 261 342 337 350 346 349 352 320 311 330 329 306 284 292 284 279 271 267 200 182 197 193 206 192 174 167 166 165 161 156 149 151 150 142 148
247 213 219 195 232 271 359 33 42 340 322 328 330 335 331 319 315 316 315 317 322 317 310 293 269 265 267 228 191 203 210 195 178 174 169 172 171 167 163 161 157 158 157 157
304 31 285 267 347 52 49 71 20 348 328 321 325 328 322 314 313 311 306 309 305 299 295 280 246 257 257 234 201 209 212 166 170 173 177 179 176 169 165 159 158 155 155 151
16 24 19 352 25 353 25 8 359 343 330 328 317 317 320 316 320 315 312 307 305 301 297 296 289 271 258 240 226 218 176 172 166 167 157 155 158 163 158 152 155 150 153 150
350 349 337 282 3 342 339 351 341 337 339 342 335 326 319 313 310 309 303 300 296 297 295 291 287 274 251 243 222 190 171 163 164 159 149 152 162 154 148 137 143 139 119 141
348 349 351 281 355 318 308 323 338 339 336 336 331 329 336 338 320 316 307 304 304 301 296 291 284 270 253 230 210 179 170 167 158 159 163 168 162 154 149 146 119 124 147 157